Location: Sandbach
(53.1410°N, 2.3660°W)
Time: 04:09:58
(UTC+00:00)

ISS - Visible Passes

Search period start: 22 March 2019 00:00
Search period end: 01 April 2019 01:00
Orbit: 406 x 411 km, 51.6° (Epoch: 22 March)

Date Brightness Start Highest point End Pass type
(mag) Time Alt. Az. Time Alt. Az. Time Alt. Az.
22 Mar -1.9 20:12:09 10° SSW 20:13:32 18° S 20:13:32 18° S visible
23 Mar -1.9 19:21:55 10° S 19:23:58 15° SE 19:25:12 13° ESE visible
23 Mar -1.7 20:56:48 10° WSW 20:57:58 19° SW 20:57:58 19° SW visible
24 Mar -3.1 20:05:58 10° SW 20:09:02 35° SSE 20:09:26 34° SE visible
24 Mar -0.7 21:42:04 10° W 21:42:11 11° W 21:42:11 11° W visible
25 Mar -2.6 19:15:17 10° SSW 19:18:06 26° SSE 19:20:44 11° E visible
25 Mar -3.0 20:51:04 10° WSW 20:53:29 43° SW 20:53:29 43° SW visible
26 Mar -3.6 20:00:05 10° WSW 20:03:18 52° SSE 20:04:39 29° ESE visible
26 Mar -1.3 21:36:27 10° W 21:37:25 18° W 21:37:25 18° W visible
27 Mar -3.2 19:09:10 10° SW 19:12:18 41° SSE 19:15:26 10° E visible
27 Mar -3.8 20:45:23 10° W 20:48:29 66° SSW 20:48:29 66° SSW visible
28 Mar -3.8 19:54:19 10° WSW 19:57:36 65° S 19:59:29 23° E visible
28 Mar -1.7 21:30:47 10° W 21:32:14 23° W 21:32:14 23° W visible
29 Mar -3.8 20:39:41 10° W 20:42:58 63° S 20:43:10 61° SSE visible
30 Mar -3.8 19:48:35 10° W 19:51:52 68° S 19:54:05 19° ESE visible
30 Mar -1.9 21:25:08 10° W 21:26:49 24° WSW 21:26:49 24° WSW visible
31 Mar -3.4 21:33:58 10° W 21:37:10 48° SSW 21:37:42 43° SSE visible
